D0335 Weather Reports


time (UTC)temp
C
wind
direction
speed
KPH
gust
KPH
rain 1hr
cm
rain 24hr
cm
rain mn
cm
humidity
%
barometer
mb
20260504045712 15 288 0.0 0.0 0.00 0.00 0.00 89 1018.7
20260504045203 15 288 0.0 0.0 0.00 0.00 0.00 89 1018.7
20260504044651 15 288 0.0 0.0 0.00 0.00 0.00 88 1018.7
20260504043524 16 288 0.0 0.0 0.00 0.00 0.00 88 1018.6
20260504043017 16 288 0.0 0.0 0.00 0.00 0.00 88 1018.6
20260504042520 16 288 0.0 0.0 0.00 0.00 0.00 88 1018.5
20260504042020 16 288 0.0 0.0 0.00 0.00 0.00 87 1018.5
20260504040852 16 288 0.0 0.0 0.00 0.00 0.00 86 1018.5
20260504040358 16 288 0.0 0.0 0.00 0.00 0.00 86 1018.5
20260504035856 16 288 0.0 0.0 0.00 0.00 0.00 86 1018.6
20260504035340 17 288 0.0 0.0 0.00 0.00 0.00 85 1018.5
20260504034836 17 288 0.0 0.0 0.00 0.00 0.00 85 1018.5
20260504034325 17 288 0.0 0.0 0.00 0.00 0.00 84 1018.6
20260504033145 17 288 0.0 0.0 0.00 0.00 0.00 82 1018.7
20260504032654 17 288 0.0 0.0 0.00 0.00 0.00 82 1018.7
20260504032203 17 288 0.0 0.0 0.00 0.00 0.00 82 1018.6
20260504031712 17 263 0.0 0.0 0.00 0.00 0.00 81 1018.6
20260504030611 18 267 0.0 0.0 0.00 0.00 0.00 80 1018.6
20260504025604 18 239 0.0 0.0 0.00 0.00 0.00 80 1018.5
20260504025107 18 239 0.0 0.0 0.00 0.00 0.00 80 1018.6
20260504024554 18 239 0.0 0.0 0.00 0.00 0.00 81 1018.5
20260504023401 18 239 0.0 0.0 0.00 0.00 0.00 81 1018.4
20260504022854 18 239 0.0 0.0 0.00 0.00 0.00 81 1018.4
20260504022343 18 239 0.0 0.0 0.00 0.00 0.00 81 1018.4
20260504021830 18 239 0.0 0.0 0.00 0.00 0.00 81 1018.4
20260504021326 18 239 0.0 0.0 0.00 0.00 0.00 81 1018.4
20260504020821 18 239 0.0 0.0 0.00 0.00 0.00 80 1018.3
20260504020312 18 239 0.0 0.0 0.00 0.00 0.00 80 1018.3
20260504015759 19 239 0.0 0.0 0.00 0.00 0.00 79 1018.2
20260504015243 19 239 0.0 0.0 0.00 0.00 0.00 79 1018.1
20260504014727 19 239 0.0 0.0 0.00 0.00 0.00 78 1018.1
20260504014216 20 239 0.0 0.0 0.00 0.00 0.00 77 1018.1
20260504013659 20 239 0.0 0.0 0.00 0.00 0.00 77 1018.0
20260504013141 20 239 0.0 0.0 0.00 0.00 0.00 76 1017.9
20260504012627 20 239 0.0 0.0 0.00 0.00 0.00 75 1017.9
20260504012110 20 239 0.0 1.6 0.00 0.00 0.00 75 1017.8
20260504011558 20 225 0.0 1.6 0.00 0.00 0.00 74 1017.7
20260504011054 20 225 0.0 1.6 0.00 0.00 0.00 74 1017.6
20260504005922 20 225 0.0 1.6 0.00 0.00 0.00 73 1017.6
20260504005405 21 217 0.0 0.0 0.00 0.00 0.00 73 1017.6
20260504004851 21 217 0.0 6.4 0.00 0.00 0.00 72 1017.5
20260504003748 21 202 1.6 8.0 0.00 0.00 0.00 71 1017.5
20260504003254 21 207 1.6 8.0 0.00 0.00 0.00 70 1017.5
20260504002743 21 238 1.6 11.3 0.00 0.00 0.00 70 1017.4
20260504002230 21 217 1.6 11.3 0.00 0.00 0.00 70 1017.4
20260504001727 21 217 1.6 11.3 0.00 0.00 0.00 69 1017.4
20260504000604 21 223 1.6 9.7 0.00 0.00 0.00 68 1017.3
20260504000050 21 242 1.6 9.7 0.00 0.00 0.00 67 1017.3
20260503234918 22 227 1.6 9.7 0.00 0.00 0.00 64 1017.3
20260503234359 22 258 1.6 9.7 0.00 0.00 0.00 66 1017.3
20260503233841 22 224 1.6 8.0 0.00 0.00 0.00 64 1017.3
20260503233339 22 192 1.6 11.3 0.00 0.00 0.00 65 1017.1
20260503232157 22 213 3.2 11.3 0.00 0.00 0.00 63 1017.2
20260503231641 22 249 3.2 11.3 0.00 0.00 0.00 64 1017.3
20260503231134 22 214 3.2 14.5 0.00 0.00 0.00 64 1017.2
20260503230619 22 233 1.6 14.5 0.00 0.00 0.00 64 1017.2
20260503230118 22 250 3.2 16.1 0.00 0.00 0.00 64 1017.2
20260503225620 22 236 4.8 16.1 0.00 0.00 0.00 62 1017.1
20260503225126 22 211 4.8 16.1 0.00 0.00 0.00 65 1017.0
20260503224005 22 159 4.8 12.9 0.00 0.00 0.00 62 1017.1
20260503223511 22 233 3.2 16.1 0.00 0.00 0.00 60 1017.1
20260503222954 22 205 4.8 16.1 0.00 0.00 0.00 61 1017.0
20260503222451 22 229 6.4 16.1 0.00 0.00 0.00 59 1017.1
20260503221946 22 171 4.8 16.1 0.00 0.00 0.00 60 1017.1
20260503221443 22 188 4.8 12.9 0.00 0.00 0.00 60 1017.1
20260503220950 22 235 4.8 16.1 0.00 0.00 0.00 59 1017.1
20260503220442 22 159 4.8 16.1 0.00 0.00 0.00 60 1017.3
20260503215939 22 211 6.4 16.1 0.00 0.00 0.00 63 1017.3
20260503215446 22 217 6.4 16.1 0.00 0.00 0.00 62 1017.4
20260503214941 22 204 6.4 20.9 0.00 0.00 0.00 61 1017.4
20260503214435 22 178 6.4 20.9 0.00 0.00 0.00 60 1017.5
20260503213927 22 213 6.4 20.9 0.00 0.00 0.00 60 1017.4
20260503213409 22 194 6.4 20.9 0.00 0.00 0.00 59 1017.5
20260503212914 23 250 4.8 14.5 0.00 0.00 0.00 59 1017.5
20260503212411 23 212 4.8 16.1 0.00 0.00 0.00 59 1017.5
20260503211902 22 181 4.8 16.1 0.00 0.00 0.00 60 1017.5
20260503211345 22 196 8.0 16.1 0.00 0.00 0.00 60 1017.5
20260503210843 23 207 6.4 16.1 0.00 0.00 0.00 60 1017.6
20260503210327 23 196 4.8 16.1 0.00 0.00 0.00 60 1017.6
20260503205827 23 212 4.8 16.1 0.00 0.00 0.00 58 1017.6
20260503203403 23 208 3.2 14.5 0.00 0.00 0.00 57 1017.9
20260503202858 23 215 4.8 14.5 0.00 0.00 0.00 56 1018.0
20260503202340 23 220 6.4 16.1 0.00 0.00 0.00 58 1018.0
20260503201849 23 194 6.4 16.1 0.00 0.00 0.00 57 1018.1
20260503201352 23 222 6.4 19.3 0.00 0.00 0.00 56 1018.2
20260503195547 24 240 3.2 12.9 0.00 0.00 0.00 53 1018.5
20260503195033 25 202 3.2 12.9 0.00 0.00 0.00 51 1018.5
20260503194525 25 171 1.6 9.7 0.00 0.00 0.00 50 1018.7
20260503194030 25 166 0.0 4.8 0.00 0.00 0.00 44 1018.8
20260503193514 25 355 0.0 4.8 0.00 0.00 0.00 44 1018.8
20260503193022 25 5 0.0 1.6 0.00 0.00 0.00 45 1018.8
20260503192518 25 209 0.0 4.8 0.00 0.00 0.00 43 1018.9
20260503192027 25 224 0.0 12.9 0.00 0.00 0.00 45 1019.0
20260503191518 25 313 1.6 12.9 0.00 0.00 0.00 44 1019.1
20260503191026 25 294 1.6 12.9 0.00 0.00 0.00 45 1019.2
20260503190530 25 97 3.2 12.9 0.00 0.00 0.00 43 1019.3
20260503185348 25 5 1.6 12.9 0.00 0.00 0.00 45 1019.4
20260503183601 25 5 3.2 11.3 0.00 0.00 0.00 43 1019.7
20260503183055 25 71 3.2 11.3 0.00 0.00 0.00 44 1019.8
20260503182538 25 20 1.6 11.3 0.00 0.00 0.00 45 1019.8
20260503181409 24 307 1.6 11.3 0.00 0.00 0.00 45 1019.8
20260503180910 24 19 1.6 11.3 0.00 0.00 0.00 44 1020.0
20260503180357 23 336 1.6 6.4 0.00 0.00 0.00 44 1020.0
20260503175849 24 5 1.6 9.7 0.00 0.00 0.00 43 1020.0
20260503175337 24 350 1.6 9.7 0.00 0.00 0.00 44 1020.0
20260503174839 24 333 3.2 9.7 0.00 0.00 0.00 44 1020.0
20260503174336 24 36 3.2 8.0 0.00 0.00 0.00 45 1020.1
20260503173821 24 0 1.6 11.3 0.00 0.00 0.00 46 1020.1
20260503173326 23 0 1.6 11.3 0.00 0.00 0.00 47 1020.2
20260503172819 23 18 1.6 11.3 0.00 0.00 0.00 46 1020.2
20260503171050 23 296 3.2 16.1 0.00 0.00 0.00 46 1020.4
20260503170557 23 337 4.8 16.1 0.00 0.00 0.00 46 1020.5
20260503150915 22 24 3.2 11.3 0.00 0.00 0.00 50 1021.5
20260503150405 22 5 3.2 11.3 0.00 0.00 0.00 49 1021.3
20260503140108 19 11 3.2 14.5 0.00 0.00 0.00 60 1020.9
20260503130616 16 341 3.2 11.3 0.00 0.00 0.00 73 1020.4
20260503110611 10 0 0.0 0.0 0.00 0.08 0.00 91 1019.8
20260503110107 10 0 0.0 0.0 0.00 0.08 0.00 91 1019.9
20260503090459 11 0 0.0 0.0 0.00 0.66 0.00 89 1019.1
20260503081121 11 0 0.0 0.0 0.00 1.07 0.00 87 1018.7
20260503080627 11 0 0.0 0.0 0.00 1.07 0.00 87 1018.6
20260503080134 11 0 0.0 0.0 0.00 1.07 0.00 87 1018.5
20260503072030 11 13 0.0 0.0 0.00 1.27 0.00 86 1018.7
20260503071537 11 14 0.0 0.0 0.00 1.30 0.00 86 1018.6
20260503071027 11 13 0.0 0.0 0.00 1.35 0.00 86 1018.4
20260503070537 11 13 0.0 0.0 0.00 1.37 0.00 86 1018.4